This is the latest recevied weather packets stored in our database for station/object S56VIL-11. If no packets are shown the sender has not sent any weather packets the latest 1 day(s).
| Time | Temp. | Humidity | Pressure | Rain* | Wind** | Luminosity | Snow |
|---|---|---|---|---|---|---|---|
| 1778055989 | 10.56° C | 82% | 1024.2 hPa | - | - | - | - |
| 1778053285 | 11.11° C | 82% | 1024 hPa | - | - | - | - |
| 1778052388 | 11.11° C | 82% | 1024.4 hPa | - | - | - | - |
| 1778051485 | 11.67° C | 82% | 1024.2 hPa | - | - | - | - |
| 1778050588 | 11.11° C | 82% | 1024.2 hPa | - | - | - | - |
| 1778048787 | 12.22° C | 82% | 1024.1 hPa | - | - | - | - |
| 1778047884 | 12.22° C | 82% | 1024.1 hPa | - | - | - | - |
| 1778046984 | 12.78° C | 81% | 1023.9 hPa | - | - | - | - |
| 1778046084 | 12.78° C | 81% | 1023.7 hPa | - | - | - | - |
| 1778043386 | 10.56° C | 81% | 1023.9 hPa | - | - | - | - |
| 1778042483 | 10.56° C | 81% | 1023.8 hPa | - | - | - | - |
| 1778041586 | 10.56° C | 80% | 1024 hPa | - | - | - | - |
| 1778040682 | 10.56° C | 81% | 1024.1 hPa | - | - | - | - |
| 1778039792 | 10.56° C | 80% | 1024.1 hPa | - | - | - | - |
| 1778039785 | 10.56° C | 80% | 1024.1 hPa | - | - | - | - |
| 1778038882 | 10.56° C | 80% | 1024.1 hPa | - | - | - | - |
| 1778037985 | 10.56° C | 80% | 1024.2 hPa | - | - | - | - |
| 1778037082 | 10.56° C | 80% | 1024.3 hPa | - | - | - | - |
| 1778036185 | 10.56° C | 80% | 1024.3 hPa | - | - | - | - |
| 1778035281 | 10.56° C | 80% | 1024.4 hPa | - | - | - | - |
| 1778034384 | 10° C | 80% | 1024.6 hPa | - | - | - | - |
| 1778033481 | 10.56° C | 80% | 1024.8 hPa | - | - | - | - |
| 1778032584 | 10.56° C | 80% | 1024.8 hPa | - | - | - | - |
| 1778031681 | 10° C | 79% | 1024.7 hPa | - | - | - | - |
| 1778030784 | 10° C | 79% | 1024.7 hPa | - | - | - | - |
* Rain since midnight (hover to see other rain measurements)
** Current wind speed in m/s (hover to see current wind gust speed)